Beckley, WV

4:25 AM EDT on April 23, 2018 (GMT -0400)
Raleigh County Memorial

Weather History for KBKW - May, 2012

Change the Weather History Date:

Wednesday, May 2, 2012

  Actual Average Record
Temperature  
Mean Temperature 71 °F 57 °F  
Max Temperature 82 °F 67 °F 86 °F (2010)
Min Temperature 59 °F 46 °F 22 °F (1943)
Degree Days  
Heating Degree Days 0 9  
Month to date heating degree days 0 18  
Since 1 July heating degree days 4105 5127  
Cooling Degree Days 6 0  
Month to date cooling degree days 9 0  
Year to date cooling degree days 39 10  
Growing Degree Days 20 (Base 50)    
Moisture  
Dew Point 57 °F    
Average Humidity 68    
Maximum Humidity 93    
Minimum Humidity 42    
Precipitation  
Precipitation 0.01 in 0.14 in 1.15 in (1948)
Month to date precipitation 0.47 0.27  
Year to date precipitation 15.40 12.77  
Snow  
Snow 0.00 in - - ()
Month to date snowfall 0.0  
Since 1 September snowfall 36.0  
Snow Depth 0.00 in    
Sea Level Pressure  
Sea Level Pressure 30.08 in    
Wind  
Wind Speed 6 mph (WNW)    
Max Wind Speed 16 mph    
Max Gust Speed 23 mph    
Visibility 10 miles    
Events      
T = Trace of Precipitation, MM = Missing Value Source: NWS Daily Summary

Daily Weather History Graph

Daily Weather History Graph

Search for Another Location

Airport or City:

Astronomy

May. 02, 2012 Rise Set
Actual Time 6:27 AM EDT 8:16 PM EDT
Civil Twilight 5:58 AM EDT 8:44 PM EDT
Nautical Twilight 5:24 AM EDT 9:19 PM EDT
Astronomical Twilight 4:47 AM EDT 9:56 PM EDT
Moon 4:30 PM EDT (5/2) 3:51 AM EDT (5/2)
Length of Visible Light 14h 46m
Length of Day
13h 49m
Waxing Gibbous, 83% of the Moon is Illuminated
May 2
Waxing Gibbous
May 5
Full
May 12
Last Quarter
May 20
New
May 28
First Quarter

Hourly Weather History & Observations

Time (EDT) Temp. Heat Index Dew Point Humidity Pressure Visibility Wind Dir Wind Speed Gust Speed Precip Events Conditions
12:51 AM 66.9 °F - 55.0 °F 66% 30.02 in 10.0 mi Calm Calm - N/A   Partly Cloudy
1:51 AM 64.9 °F - 55.0 °F 70% 30.02 in 10.0 mi SW 4.6 mph - N/A   Clear
2:51 AM 64.9 °F - 55.9 °F 73% 30.01 in 10.0 mi SW 5.8 mph - N/A   Partly Cloudy
3:51 AM 66.0 °F - 57.0 °F 73% 30.01 in 10.0 mi SW 8.1 mph - N/A   Mostly Cloudy
4:25 AM 60.8 °F - 59.0 °F 94% 30.13 in 10.0 mi NNE 12.7 mph 18.4 mph 0.01 in   Overcast
4:30 AM 60.8 °F - 59.0 °F 94% 30.13 in 7.0 mi North 11.5 mph 18.4 mph 0.01 in   Overcast
4:51 AM 61.0 °F - 57.9 °F 90% 30.05 in 9.0 mi NNE 5.8 mph - 0.01 in   Overcast
5:00 AM 60.8 °F - 57.2 °F 88% 30.13 in 10.0 mi NNE 4.6 mph - N/A   Overcast
5:13 AM 60.8 °F - 57.2 °F 88% 30.13 in 10.0 mi NE 3.5 mph - N/A   Mostly Cloudy
5:31 AM 60.8 °F - 57.2 °F 88% 30.14 in 10.0 mi Calm Calm - N/A   Mostly Cloudy
5:51 AM 59.0 °F - 57.0 °F 93% 30.06 in 8.0 mi SSE 3.5 mph - N/A   Scattered Clouds
6:51 AM 59.0 °F - 57.0 °F 93% 30.07 in 10.0 mi Calm Calm - N/A   Partly Cloudy
7:51 AM 61.0 °F - 57.9 °F 90% 30.09 in 10.0 mi Calm Calm - N/A   Mostly Cloudy
8:51 AM 64.9 °F - 60.1 °F 84% 30.12 in 10.0 mi Calm Calm - N/A   Mostly Cloudy
9:51 AM 70.0 °F - 60.1 °F 71% 30.12 in 10.0 mi Variable 3.5 mph - N/A   Partly Cloudy
10:51 AM 73.9 °F - 61.0 °F 64% 30.11 in 10.0 mi West 9.2 mph - N/A   Mostly Cloudy
11:51 AM 73.9 °F - 61.0 °F 64% 30.11 in 10.0 mi West 11.5 mph 20.7 mph N/A   Mostly Cloudy
12:51 PM 77.0 °F - 61.0 °F 58% 30.09 in 10.0 mi West 10.4 mph - N/A   Mostly Cloudy
1:51 PM 79.0 °F - 59.0 °F 50% 30.07 in 10.0 mi West 11.5 mph 19.6 mph N/A   Partly Cloudy
2:51 PM 80.1 °F 80.7 °F 59.0 °F 48% 30.06 in 10.0 mi West 9.2 mph - N/A   Scattered Clouds
3:51 PM 81.0 °F 81.0 °F 57.0 °F 44% 30.05 in 10.0 mi West 8.1 mph - N/A   Clear
4:51 PM 81.0 °F 81.0 °F 57.0 °F 44% 30.05 in 10.0 mi NW 8.1 mph - N/A   Partly Cloudy
5:51 PM 81.0 °F 81.0 °F 57.0 °F 44% 30.06 in 10.0 mi NW 11.5 mph - N/A   Partly Cloudy
6:51 PM 80.1 °F 80.2 °F 55.9 °F 43% 30.06 in 10.0 mi WNW 5.8 mph - N/A   Clear
7:51 PM 77.0 °F - 55.0 °F 47% 30.06 in 10.0 mi WNW 3.5 mph - N/A   Clear
8:51 PM 70.0 °F - 57.0 °F 63% 30.08 in 10.0 mi Calm Calm - N/A   Clear
9:51 PM 66.0 °F - 55.9 °F 70% 30.09 in 10.0 mi South 5.8 mph - N/A   Clear
10:51 PM 68.0 °F - 55.4 °F 64% 30.16 in 10.0 mi South 5.8 mph - N/A   Clear
11:51 PM 64.9 °F - 55.9 °F 73% 30.08 in 10.0 mi Calm Calm - N/A   Clear